The Dalles, WA

4:47 PM PDT on July 27, 2017 (GMT -0700)
Columbia Gorge Regional-The Dalles

Weather History for KDLS - November, 2013

Change the Weather History Date:

Friday, November 1, 2013

  Actual Average Record
Temperature  
Mean Temperature 52 °F -  
Max Temperature 64 °F 57 °F 67 °F (1949)
Min Temperature 39 °F 38 °F 16 °F (2002)
Degree Days  
Heating Degree Days 14    
Growing Degree Days 2 (Base 50)    
Moisture  
Dew Point 43 °F    
Average Humidity 73    
Maximum Humidity 93    
Minimum Humidity 46    
Precipitation  
Precipitation 0.00 in - - ()
Sea Level Pressure  
Sea Level Pressure 30.16 in    
Wind  
Wind Speed 2 mph (SE)    
Max Wind Speed 7 mph    
Max Gust Speed -    
Visibility 10 miles    
Events Rain    
Averages and records for this station are not official NWS values.
T = Trace of Precipitation, MM = Missing Value Source: NWS Daily Summary

Daily Weather History Graph

Daily Weather History Graph

Search for Another Location

Airport or City:

Trip Planner

Search our weather history database for the weather conditions in past years. The results will help you decide how hot, cold, wet, or windy it might be!

Date:

Astronomy

Nov. 01, 2013 Rise Set
Actual Time 7:44 AM PDT 5:50 PM PDT
Civil Twilight 7:13 AM PDT 6:21 PM PDT
Nautical Twilight 6:38 AM PDT 6:56 PM PDT
Astronomical Twilight 6:04 AM PDT 7:31 PM PDT
Moon 5:37 AM PDT (11/1) 4:50 PM PDT (11/1)
Length of Visible Light 11h 08m
Length of Day
10h 06m
Waning Crescent, 4% of the Moon is Illuminated
Nov 1
Waning Crescent
Nov 3
New
Nov 9
First Quarter
Nov 17
Full
Nov 25
Last Quarter

Hourly Weather History & Observations

Time (PDT) Temp. Windchill Dew Point Humidity Pressure Visibility Wind Dir Wind Speed Gust Speed Precip Events Conditions
12:53 AM 53.1 °F - 46.0 °F 77% 30.25 in 10.0 mi Calm Calm - N/A   Clear
1:53 AM 53.1 °F - 46.9 °F 80% 30.25 in 10.0 mi Variable 5.8 mph - N/A   Clear
2:53 AM 48.9 °F - 44.1 °F 83% 30.26 in 10.0 mi SW 3.5 mph - N/A   Clear
3:53 AM 44.1 °F 40.1 °F 41.0 °F 89% 30.25 in 10.0 mi ESE 6.9 mph - N/A   Clear
4:53 AM 46.9 °F - 43.0 °F 86% 30.26 in 10.0 mi Calm Calm - N/A   Clear
5:53 AM 43.0 °F 38.8 °F 39.9 °F 89% 30.27 in 10.0 mi East 6.9 mph - N/A   Clear
6:53 AM 39.9 °F - 37.9 °F 93% 30.28 in 10.0 mi Calm Calm - N/A   Clear
7:53 AM 39.0 °F 34.8 °F 37.0 °F 93% 30.28 in 10.0 mi ESE 5.8 mph - N/A   Clear
8:53 AM 43.0 °F - 39.9 °F 89% 30.30 in 10.0 mi Calm Calm - N/A   Clear
9:53 AM 48.0 °F - 42.1 °F 80% 30.30 in 10.0 mi NNW 5.8 mph - N/A   Clear
10:53 AM 50.0 °F - 43.0 °F 77% 30.27 in 10.0 mi Calm Calm - N/A   Clear
11:53 AM 54.0 °F - 44.1 °F 69% 30.25 in 10.0 mi Calm Calm - N/A   Clear
12:53 PM 57.0 °F - 44.1 °F 62% 30.21 in 10.0 mi Calm Calm - N/A   Clear
1:53 PM 61.0 °F - 43.0 °F 52% 30.17 in 10.0 mi Calm Calm - N/A   Clear
2:53 PM 63.0 °F - 43.0 °F 48% 30.14 in 10.0 mi Calm Calm - N/A   Clear
3:53 PM 64.0 °F - 43.0 °F 46% 30.11 in 10.0 mi Calm Calm - N/A   Clear
4:53 PM 62.1 °F - 43.0 °F 50% 30.08 in 10.0 mi Calm Calm - N/A   Clear
5:53 PM 59.0 °F - 44.1 °F 58% 30.05 in 10.0 mi Calm Calm - N/A   Clear
6:53 PM 55.9 °F - 44.1 °F 64% 30.04 in 10.0 mi Calm Calm - N/A   Partly Cloudy
7:53 PM 55.0 °F - 45.0 °F 69% 30.01 in 10.0 mi SE 3.5 mph - N/A   Clear
8:53 PM 53.1 °F - 44.1 °F 71% 29.99 in 10.0 mi Calm Calm - N/A   Clear
9:53 PM 53.1 °F - 44.1 °F 71% 29.98 in 10.0 mi Calm Calm - N/A   Clear
10:53 PM 51.1 °F - 45.0 °F 80% 29.96 in 10.0 mi Calm Calm - N/A   Scattered Clouds
11:53 PM 51.1 °F - 45.0 °F 80% 29.92 in 10.0 mi Calm Calm - 0.00 in Rain Light Rain